Home   Weather   Kulmbach   Past weeks

Flag for Germany Past Weather in Kulmbach, Bavaria, Germany — Yesterday and Last 2 Weeks

Now
32 °F

Overcast.


Feels Like: 32 °F
Forecast: 36 / 41 °F
Wind: No wind

Location: Grafenwoehr

Current Time: Dec 11, 2016 at 5:18:15 am

Latest Report: Dec 11, 2016 at 4:58 am


Visibility: N/A

Pressure: 30.11 "Hg

Humidity: 100%

Dew Point: 32 °F

Location of KulmbachLocation

Past Weather in Kulmbach — Graph

°F

Kulmbach Temperature Yesterday

Maximum temperature yesterday: 48 °F (at 12:58 pm)
Minimum temperature yesterday: 27 °F (at 10:58 pm)
Average temperature yesterday: 36 °F

High & Low Weather Summary for the Past Weeks

 TemperatureHumidityPressure
High48 °F (Dec 10, 12:58 pm)100% (Nov 27, 7:58 pm)30.66 "Hg (Nov 27, 7:58 pm)
Low10 °F (Nov 30, 3:58 am)51% (Nov 29, 2:58 pm)29.98 "Hg (Nov 27, 8:01 am)
Average29 °F87%30.37 "Hg
* Reported Nov 26 3:58 am — Dec 11 3:58 am, Kulmbach, Weather by CustomWeather, © 2016

Note: Actual official high and low records may vary slightly from our data, if they occured in-between our weather recording intervals... More about our weather records

Advertising

Kulmbach Weather History for the Previous 24 Hours

Scroll right to see more
 ConditionsComfort  
Time TempWeatherWind HumidityBarometerVisibility
3:58 am
Sun, Dec 11
30 °FOvercast.No wind93%30.13 "HgN/A
2:58 am28 °FOvercast.No wind100%30.15 "HgN/A
1:58 am27 °FPassing clouds.No wind93%30.18 "HgN/A
12:58 am27 °FPassing clouds.No wind100%30.20 "HgN/A
11:58 pm
Sat, Dec 10
28 °FIce fog.No wind93%30.22 "Hg4 mi
10:58 pm27 °FIce fog.No wind100%30.25 "Hg1 mi
9:58 pm28 °FIce fog.No wind93%30.26 "Hg5 mi
8:58 pm30 °FOvercast.No wind93%30.27 "HgN/A
7:58 pm28 °FIce fog.No wind100%30.29 "Hg6 mi
6:58 pm32 °FClear.No wind100%30.29 "HgN/A
5:58 pm34 °FClear.No wind93%30.29 "HgN/A
4:58 pm37 °FPassing clouds.No wind93%30.28 "HgN/A
3:58 pm45 °FSunny.No wind76%30.27 "HgN/A
2:58 pm48 °FPassing clouds.5 mph66%30.27 "HgN/A
1:58 pm48 °FSunny.3 mph66%30.29 "HgN/A
12:58 pm48 °FSunny.No wind66%30.31 "HgN/A
11:58 am43 °FPassing clouds.No wind81%30.33 "HgN/A
10:58 am41 °FSunny.No wind81%30.36 "HgN/A
9:58 am37 °FSunny.No wind93%30.37 "HgN/A
9:03 am36 °FFog.No wind93%30.30 "Hg4 mi
7:58 am36 °FFog.No wind93%30.35 "Hg5 mi
6:58 am36 °FFog.No wind93%30.37 "Hg4 mi
5:58 am36 °FFog.No wind93%30.37 "Hg4 mi
5:02 am34 °FFog.No wind93%30.31 "Hg2 mi
Weather by CustomWeather, © 2016

See weather overviewHow to use our weather pages